GW1765 Weather Reports


time (UTC)temp
C
wind
direction
speed
KPH
gust
KPH
rain 1hr
cm
rain 24hr
cm
rain mn
cm
humidity
%
barometer
mb
20260901231039 15 225 11.3 17.7 0.00 0.18 0.18 71 1020.3
20260901230033 15 248 8.0 14.5 0.00 0.18 0.18 71 1020.4
20260901225031 16 242 8.0 17.7 0.00 0.18 0.18 71 1020.5
20260901224048 16 272 8.0 17.7 0.00 0.18 0.18 75 1020.5
20260901223023 15 253 6.4 17.7 0.00 0.18 0.18 78 1020.4
20260901222019 15 254 8.0 12.9 0.00 0.18 0.18 80 1020.5
20260901221016 14 225 9.7 16.1 0.00 0.18 0.18 83 1020.5
20260901220113 14 231 6.4 16.1 0.00 0.18 0.18 86 1020.6
20260901215129 14 220 11.3 16.1 0.00 0.18 0.18 90 1020.6
20260901214105 13 229 8.0 14.5 0.00 0.18 0.18 92 1020.6
20260901213104 14 205 9.7 12.9 0.00 0.18 0.18 94 1020.6
20260901212059 13 221 8.0 12.9 0.00 0.18 0.18 95 1020.7
20260901211057 13 229 6.4 12.9 0.00 0.18 0.18 94 1020.7
20260901210055 13 213 9.7 14.5 0.00 0.18 0.18 95 1020.8
20260901205049 13 198 8.0 12.9 0.00 0.18 0.18 95 1020.7
20260901204045 -17 0.0 0.0 0.00 0.18 0.18 1020.6
20260901203102 -17 0.0 0.0 0.00 0.18 0.18 1020.4
20260901202038 11 180 6.4 8.0 0.00 0.18 0.18 96 1020.4
20260901201034 11 185 6.4 11.3 0.00 0.18 0.18 96 1020.3
20260901200032 11 180 4.8 6.4 0.00 0.18 0.18 95 1020.4
20260901195030 10 211 8.0 24.1 0.00 0.18 0.18 95 1020.4
20260901194024 10 112 1.6 4.8 0.00 0.18 0.18 95 1020.2
20260901193022 10 93 1.6 3.2 0.00 0.18 0.18 94 1020.0
20260901192018 10 153 0.0 3.2 0.03 0.18 0.18 94 1020.0
20260901191114 10 210 1.6 4.8 0.03 0.18 0.18 94 1020.0
20260901190113 10 217 0.0 3.2 0.03 0.18 0.18 94 1019.9
20260901185109 10 217 3.2 6.4 0.03 0.18 0.18 94 1019.8
20260901184103 10 164 1.6 6.4 0.05 0.18 0.18 94 1019.9
20260901183102 10 135 1.6 6.4 0.10 0.18 0.18 94 1019.8
20260901182058 10 216 3.2 6.4 0.05 0.15 0.15 93 1019.9
20260901181052 10 226 6.4 8.0 0.05 0.15 0.15 93 1019.7
20260901180050 10 239 4.8 14.5 0.05 0.15 0.15 93 1019.7
20260901175046 10 248 1.6 4.8 0.05 0.15 0.15 93 1019.5
20260901174042 10 135 0.0 3.2 0.03 0.13 0.13 93 1019.5
20260901173039 10 182 3.2 6.4 0.00 0.10 0.10 93 1019.5
20260901172037 10 216 4.8 9.7 0.00 0.10 0.10 93 1019.5
20260901171031 10 235 8.0 12.9 0.00 0.10 0.10 92 1019.3
20260901170048 10 247 1.6 6.4 0.00 0.10 0.10 92 1019.2
20260901165026 10 203 1.6 4.8 0.00 0.10 0.10 92 1019.1
20260901164043 10 203 1.6 3.2 0.00 0.10 0.10 92 1019.1
20260901163017 10 198 3.2 4.8 0.00 0.10 0.10 92 1019.0
20260901162117 10 225 3.2 6.4 0.00 0.10 0.10 91 1019.0
20260901161111 10 225 1.6 6.4 0.00 0.10 0.10 91 1019.0
20260901160108 10 233 4.8 12.9 0.00 0.10 0.10 91 1019.0
20260901155104 10 227 3.2 12.9 0.00 0.10 0.10 91 1018.7
20260901154100 10 231 0.0 6.4 0.00 0.10 0.10 91 1018.8
20260901153058 10 220 1.6 4.8 0.00 0.10 0.10 90 1018.7
20260901152053 10 204 3.2 6.4 0.00 0.10 0.10 90 1018.9
20260901151050 10 229 1.6 6.4 0.00 0.10 0.10 90 1019.0
20260901150046 10 245 0.0 4.8 0.00 0.10 0.10 90 1019.0
20260901145043 10 217 0.0 3.2 0.00 0.10 0.10 89 1019.2
20260901144039 10 135 0.0 3.2 0.00 0.10 0.10 89 1019.2
20260901143057 10 270 0.0 3.2 0.03 0.10 0.10 88 1019.3
20260901142032 10 237 3.2 8.0 0.03 0.10 0.10 88 1019.5
20260901141028 10 268 3.2 6.4 0.03 0.10 0.10 87 1019.5
20260901140045 10 191 3.2 8.0 0.05 0.10 0.10 86 1019.5
20260901135043 10 203 11.3 17.7 0.05 0.10 0.10 85 1019.6
20260901134018 10 220 12.9 22.5 0.10 0.10 0.10 84 1019.6
20260901133115 10 212 4.8 8.0 0.05 0.05 0.05 84 1019.5
20260901132111 10 218 6.4 11.3 0.05 0.05 0.05 83 1019.6
20260901131108 10 226 6.4 14.5 0.05 0.05 0.05 83 1019.6
20260901130105 10 180 6.4 11.3 0.03 0.03 0.03 82 1019.6
20260901125101 10 196 4.8 17.7 0.03 0.03 0.03 82 1019.7
20260901124057 10 168 1.6 6.4 0.00 0.00 0.00 82 1019.7
20260901123115 10 177 3.2 6.4 0.00 0.00 0.00 82 1019.6
20260901122052 10 211 3.2 6.4 0.00 0.00 0.00 81 1019.6
20260901121047 9 213 6.4 11.3 0.00 0.00 0.00 81 1019.6
20260901120043 9 270 4.8 9.7 0.00 0.00 0.00 81 1019.6
20260901115042 9 250 6.4 11.3 0.00 0.00 0.00 81 1019.5
20260901114057 9 221 8.0 12.9 0.00 0.03 0.00 81 1019.4
20260901113053 10 223 6.4 9.7 0.00 0.10 0.00 81 1019.3
20260901112031 10 215 8.0 12.9 0.00 0.10 0.00 81 1019.3
20260901111026 10 192 8.0 12.9 0.00 0.10 0.00 80 1019.3
20260901110103 9 189 8.0 12.9 0.00 0.10 0.00 80 1019.3
20260901105019 9 189 9.7 16.1 0.00 0.10 0.00 80 1019.4
20260901104018 9 180 11.3 16.1 0.00 0.10 0.00 80 1019.3
20260901103112 9 194 14.5 20.9 0.00 0.10 0.00 81 1019.4
20260901102151 10 199 17.7 25.7 0.00 0.10 0.00 81 1019.5
20260901101105 9 211 14.5 24.1 0.00 0.10 0.00 81 1019.5
20260901095058 10 253 16.1 22.5 0.00 0.10 0.00 82 1019.3
20260901094055 10 230 17.7 27.4 0.00 0.10 0.00 82 1019.2
20260901093053 9 228 12.9 19.3 0.00 0.13 0.00 81 1019.0
20260901092048 9 219 11.3 17.7 0.00 0.15 0.00 79 1018.8
20260901091044 9 200 9.7 16.1 0.00 0.20 0.00 78 1018.8
20260901090041 9 200 6.4 9.7 0.00 0.20 0.00 76 1018.8
20260901085037 9 183 4.8 6.4 0.00 0.20 0.00 75 1019.0
20260901084056 10 231 8.0 12.9 0.00 0.20 0.00 74 1018.9
20260901083052 10 213 12.9 20.9 0.00 0.20 0.00 73 1018.9
20260901082049 10 180 9.7 12.9 0.00 0.20 0.00 73 1018.7
20260901081045 10 148 8.0 12.9 0.00 0.20 0.00 73 1018.7
20260901080020 10 185 12.9 17.7 0.00 0.20 0.00 73 1018.7
20260901075018 10 167 14.5 20.9 0.00 0.20 0.00 73 1018.6
20260901074136 10 195 17.7 22.5 0.00 0.20 0.00 74 1018.6
20260901073109 10 200 20.9 25.7 0.00 0.20 0.00 74 1018.6
20260901072108 10 204 19.3 27.4 0.00 0.20 0.00 75 1018.4
20260901071104 10 214 20.9 29.0 0.00 0.20 0.00 75 1018.3
20260901070059 10 204 19.3 29.0 0.00 0.20 0.00 76 1018.1
20260901065058 10 216 19.3 30.6 0.00 0.20 0.00 76 1017.9
20260901064054 10 227 16.1 24.1 0.00 0.20 0.00 75 1017.8
20260901063111 10 258 17.7 30.6 0.00 0.20 0.00 74 1017.6
20260901062046 10 215 14.5 22.5 0.00 0.20 0.00 73 1017.6
20260901061043 10 205 16.1 24.1 0.00 0.20 0.00 73 1017.4
20260901060038 10 192 16.1 24.1 0.00 0.20 0.00 72 1017.3
20260901055036 11 207 17.7 25.7 0.00 0.20 0.00 71 1017.4
20260901054031 11 213 19.3 29.0 0.00 0.20 0.00 71 1017.5
20260901053028 11 189 20.9 25.7 0.00 0.20 0.00 71 1017.3
20260901052044 12 206 22.5 35.4 0.00 0.20 0.00 70 1017.1
20260901051021 12 219 22.5 37.0 0.00 0.20 0.00 71 1017.2
20260901050018 12 225 25.7 37.0 0.00 0.20 0.00 71 1017.0
20260901045114 11 224 25.7 40.2 0.00 0.20 0.00 70 1017.0
20260901044112 12 212 27.4 37.0 0.00 0.20 0.00 70 1016.9
20260901043110 12 221 22.5 33.8 0.00 0.20 0.00 67 1016.8
20260901042104 12 197 25.7 38.6 0.00 0.20 0.00 69 1016.7
20260901041100 12 218 22.5 37.0 0.00 0.23 0.00 67 1016.7
20260901040119 12 196 27.4 37.0 0.00 0.23 0.00 66 1016.7
20260901035113 12 197 25.7 35.4 0.00 0.23 0.00 63 1016.6
20260901034049 13 225 22.5 32.2 0.00 0.23 0.00 62 1016.7
20260901033046 13 215 25.7 32.2 0.00 0.23 0.00 63 1016.6
20260901032042 12 207 25.7 35.4 0.00 0.23 0.00 62 1016.5
20260901031101 13 213 27.4 37.0 0.00 0.28 0.00 59 1016.4
20260901030035 14 218 27.4 37.0 0.00 0.28 0.00 58 1016.2
20260901025032 14 217 29.0 43.5 0.00 0.28 0.00 60 1016.1
20260901024028 13 222 29.0 40.2 0.00 0.28 0.00 57 1016.0
20260901023046 14 231 32.2 43.5 0.00 0.28 0.00 56 1016.0
20260901022021 15 225 32.2 45.1 0.00 0.28 0.00 57 1015.9
20260901021038 13 229 32.2 43.5 0.00 0.28 0.00 55 1015.7
20260901020116 14 222 33.8 48.3 0.00 0.28 0.00 55 1015.8
20260901015111 13 230 33.8 46.7 0.00 0.28 0.00 57 1015.8
20260901014107 13 220 32.2 46.7 0.00 0.28 0.00 60 1016.1
20260901013126 14 208 30.6 43.5 0.00 0.28 0.00 61 1016.2
20260901012101 14 220 33.8 43.5 0.00 0.28 0.00 61 1016.4
20260901011117 14 216 33.8 46.7 0.00 0.28 0.00 61 1016.5
20260901010054 15 213 32.2 43.5 0.00 0.28 0.00 61 1016.5
20260901005049 15 233 25.7 41.8 0.00 0.28 0.00 63 1016.6
20260901004047 13 237 27.4 37.0 0.00 0.28 0.00 61 1016.7
20260901003043 14 214 33.8 48.3 0.00 0.28 0.00 62 1016.9
20260901002039 13 213 32.2 46.7 0.00 0.28 0.00 62 1016.8
20260901001036 13 186 30.6 48.3 0.00 0.28 0.00 62 1016.8
20260901000032 13 222 37.0 48.3 0.00 0.28 0.00 60 1016.8
20260831235049 14 211 35.4 48.3 0.00 0.28 0.00 60 1016.6
20260831234027 14 217 33.8 45.1 0.00 0.28 0.00 58 1016.7
20260831233022 14 221 37.0 49.9 0.00 0.28 0.00 59 1016.7
20260831232019 14 217 35.4 57.9 0.00 0.30 0.00 61 1016.6